• In Schweiz
  • Länderverzeichnis
  • Für 7 Tage
  • Wassertemperatur
  • Satellitenkarten
  • Wetterkarte
  • Widgets
  • user-avatar
    Anmelden

    Stündliche Wetter Albany

    Heute, 26 Mai, Samstag

    Zeit Temperatur Niederschläge Wind Luftdruck Luftfeuchtigkeit
    00:00 +14°C° 0,7 mm 13 m/S 739 mmHg 71%
    01:00 +14°C° 0,7 mm 13 m/S 739 mmHg 75%
    02:00 +14°C° 0 mm 12 m/S 739 mmHg 77%
    03:00 +14°C° 0,2 mm 12 m/S 740 mmHg 76%
    04:00 +14°C° 0,2 mm 12 m/S 740 mmHg 76%
    05:00 +14°C° 0,2 mm 12 m/S 741 mmHg 75%
    06:00 +14°C° 0,1 mm 11 m/S 742 mmHg 74%
    07:00 +14°C° 0,1 mm 11 m/S 743 mmHg 73%
    08:00 +14°C° 0,1 mm 11 m/S 744 mmHg 72%
    09:00 +16°C° 0,1 mm 11 m/S 745 mmHg 67%
    10:00 +17°C° 0,1 mm 11 m/S 746 mmHg 62%
    11:00 +18°C° 0,1 mm 11 m/S 747 mmHg 58%
    12:00 +18°C° 0,1 mm 10 m/S 748 mmHg 59%
    13:00 +18°C° 0,1 mm 10 m/S 748 mmHg 60%
    14:00 +18°C° 0,1 mm 10 m/S 748 mmHg 61%
    15:00 +17°C° 0,2 mm 10 m/S 749 mmHg 66%
    16:00 +16°C° 0,2 mm 10 m/S 750 mmHg 71%
    17:00 +15°C° 0,2 mm 9 m/S 751 mmHg 76%
    18:00 +15°C° 0,1 mm 9 m/S 751 mmHg 75%
    19:00 +15°C° 0,1 mm 8 m/S 752 mmHg 74%
    20:00 +14°C° 0,1 mm 7 m/S 753 mmHg 73%
    21:00 +14°C° 0,1 mm 7 m/S 753 mmHg 76%
    22:00 +14°C° 0,1 mm 7 m/S 753 mmHg 78%
    23:00 +14°C° 0,1 mm 7 m/S 753 mmHg 80%

    Morgen, 27 Mai, Sonntag

    Zeit Temperatur Niederschläge Wind Luftdruck Luftfeuchtigkeit
    00:00 +14°C° 0,1 mm 7 m/S 753 mmHg 80%
    01:00 +15°C° 0,1 mm 8 m/S 753 mmHg 80%
    02:00 +15°C° 0,1 mm 8 m/S 753 mmHg 80%
    03:00 +15°C° 0,1 mm 8 m/S 752 mmHg 80%
    04:00 +15°C° 0,1 mm 9 m/S 752 mmHg 79%
    05:00 +15°C° 0,1 mm 9 m/S 752 mmHg 79%
    06:00 +15°C° 0,3 mm 9 m/S 752 mmHg 78%
    07:00 +16°C° 0,3 mm 9 m/S 753 mmHg 77%
    08:00 +16°C° 0,3 mm 9 m/S 753 mmHg 77%
    09:00 +16°C° 0,5 mm 9 m/S 753 mmHg 78%
    10:00 +16°C° 0,5 mm 9 m/S 754 mmHg 79%
    11:00 +16°C° 0,5 mm 8 m/S 754 mmHg 80%
    12:00 +15°C° 0,3 mm 8 m/S 754 mmHg 80%
    13:00 +15°C° 0,3 mm 8 m/S 754 mmHg 80%
    14:00 +13°C° 0,3 mm 8 m/S 754 mmHg 81%
    15:00 +13°C° 0 mm 8 m/S 754 mmHg 78%
    16:00 +13°C° 0 mm 8 m/S 755 mmHg 75%
    17:00 +13°C° 0 mm 8 m/S 755 mmHg 72%
    18:00 +13°C° 0,1 mm 8 m/S 756 mmHg 72%
    19:00 +13°C° 0,1 mm 8 m/S 757 mmHg 71%
    20:00 +12°C° 0,1 mm 9 m/S 757 mmHg 71%
    21:00 +12°C° 0 mm 8 m/S 758 mmHg 70%
    22:00 +11°C° 0 mm 8 m/S 758 mmHg 69%
    23:00 +10°C° 0 mm 7 m/S 759 mmHg 68%

    übermorgen, 28 Mai, Montag

    Zeit Temperatur Niederschläge Wind Luftdruck Luftfeuchtigkeit
    00:00 +10°C° 0 mm 7 m/S 759 mmHg 69%
    01:00 +10°C° 0 mm 7 m/S 760 mmHg 70%
    02:00 +9°C° 0 mm 7 m/S 760 mmHg 71%
    03:00 +9°C° 0,1 mm 7 m/S 760 mmHg 72%
    04:00 +9°C° 0,1 mm 7 m/S 760 mmHg 73%
    05:00 +9°C° 0,1 mm 7 m/S 761 mmHg 74%
    06:00 +9°C° 0,1 mm 6 m/S 761 mmHg 74%
    07:00 +10°C° 0,1 mm 6 m/S 762 mmHg 73%
    08:00 +10°C° 0,1 mm 6 m/S 763 mmHg 73%
    09:00 +11°C° 0,1 mm 6 m/S 763 mmHg 66%
    10:00 +14°C° 0,1 mm 7 m/S 763 mmHg 59%
    11:00 +15°C° 0,1 mm 7 m/S 764 mmHg 52%
    12:00 +15°C° 0,1 mm 7 m/S 764 mmHg 53%
    13:00 +15°C° 0,1 mm 6 m/S 764 mmHg 53%
    14:00 +15°C° 0,1 mm 6 m/S 763 mmHg 54%
    15:00 +14°C° 0,1 mm 5 m/S 764 mmHg 57%
    16:00 +13°C° 0,1 mm 5 m/S 764 mmHg 60%
    17:00 +12°C° 0,1 mm 4 m/S 765 mmHg 63%
    18:00 +12°C° 0 mm 4 m/S 765 mmHg 65%
    19:00 +11°C° 0 mm 3 m/S 766 mmHg 67%
    20:00 +10°C° 0 mm 3 m/S 766 mmHg 70%
    21:00 +10°C° 0 mm 3 m/S 766 mmHg 72%
    22:00 +9°C° 0 mm 2 m/S 767 mmHg 74%
    23:00 +9°C° 0 mm 2 m/S 767 mmHg 76%

    29 Mai, Dienstag

    Zeit Temperatur Niederschläge Wind Luftdruck Luftfeuchtigkeit
    00:00 +9°C° 0 mm 2 m/S 767 mmHg 77%
    01:00 +8°C° 0 mm 3 m/S 766 mmHg 79%
    02:00 +8°C° 0 mm 3 m/S 766 mmHg 80%
    03:00 +8°C° 0 mm 3 m/S 766 mmHg 80%
    04:00 +8°C° 0 mm 3 m/S 766 mmHg 80%
    05:00 +7°C° 0 mm 4 m/S 766 mmHg 80%
    06:00 +7°C° 0 mm 4 m/S 767 mmHg 79%
    07:00 +7°C° 0 mm 4 m/S 767 mmHg 78%
    08:00 +7°C° 0 mm 4 m/S 767 mmHg 77%
    09:00 +10°C° 0 mm 5 m/S 767 mmHg 68%
    10:00 +13°C° 0 mm 5 m/S 767 mmHg 59%
    11:00 +15°C° 0 mm 5 m/S 767 mmHg 49%
    12:00 +16°C° 0 mm 5 m/S 766 mmHg 47%
    13:00 +17°C° 0 mm 5 m/S 766 mmHg 44%
    14:00 +18°C° 0 mm 4 m/S 765 mmHg 41%
    15:00 +17°C° 0 mm 4 m/S 765 mmHg 45%
    16:00 +16°C° 0 mm 3 m/S 766 mmHg 49%
    17:00 +14°C° 0 mm 3 m/S 766 mmHg 53%
    18:00 +13°C° 0 mm 3 m/S 766 mmHg 58%
    19:00 +13°C° 0 mm 2 m/S 766 mmHg 63%
    20:00 +12°C° 0 mm 2 m/S 766 mmHg 68%
    21:00 +12°C° 0 mm 2 m/S 766 mmHg 70%
    22:00 +10°C° 0 mm 2 m/S 766 mmHg 71%
    23:00 +10°C° 0 mm 2 m/S 766 mmHg 73%

    30 Mai, Mittwoch

    Zeit Temperatur Niederschläge Wind Luftdruck Luftfeuchtigkeit
    00:00 +10°C° 0 mm 2 m/S 766 mmHg 73%
    01:00 +10°C° 0 mm 2 m/S 765 mmHg 73%
    02:00 +9°C° 0 mm 2 m/S 765 mmHg 73%
    03:00 +9°C° 0 mm 3 m/S 765 mmHg 72%
    04:00 +9°C° 0 mm 3 m/S 765 mmHg 72%
    05:00 +9°C° 0 mm 3 m/S 765 mmHg 71%
    06:00 +9°C° 0 mm 3 m/S 765 mmHg 65%
    07:00 +10°C° 0 mm 4 m/S 765 mmHg 59%
    08:00 +10°C° 0 mm 4 m/S 765 mmHg 54%
    09:00 +13°C° 0 mm 5 m/S 764 mmHg 48%
    10:00 +15°C° 0 mm 5 m/S 764 mmHg 41%
    11:00 +19°C° 0 mm 6 m/S 763 mmHg 35%
    12:00 +20°C° 0 mm 6 m/S 762 mmHg 34%
    13:00 +21°C° 0 mm 5 m/S 761 mmHg 33%
    14:00 +22°C° 0 mm 5 m/S 760 mmHg 31%
    15:00 +20°C° 0 mm 5 m/S 760 mmHg 35%
    16:00 +19°C° 0 mm 5 m/S 760 mmHg 39%
    17:00 +18°C° 0 mm 4 m/S 760 mmHg 43%
    18:00 +16°C° 0 mm 5 m/S 760 mmHg 44%
    19:00 +16°C° 0 mm 5 m/S 759 mmHg 45%
    20:00 +15°C° 0 mm 6 m/S 759 mmHg 46%
    21:00 +15°C° 0 mm 6 m/S 759 mmHg 45%
    22:00 +15°C° 0 mm 6 m/S 758 mmHg 44%
    23:00 +15°C° 0 mm 6 m/S 757 mmHg 43%

    31 Mai, Donnerstag

    Zeit Temperatur Niederschläge Wind Luftdruck Luftfeuchtigkeit
    00:00 +16°C° 0 mm 7 m/S 757 mmHg 43%
    01:00 +16°C° 0 mm 7 m/S 756 mmHg 44%
    02:00 +16°C° 0 mm 7 m/S 755 mmHg 44%
    03:00 +16°C° 0 mm 8 m/S 755 mmHg 45%
    04:00 +16°C° 0 mm 8 m/S 754 mmHg 46%
    05:00 +16°C° 0 mm 8 m/S 754 mmHg 46%
    06:00 +16°C° 0 mm 8 m/S 754 mmHg 47%
    07:00 +16°C° 0 mm 8 m/S 753 mmHg 48%
    08:00 +17°C° 0 mm 8 m/S 753 mmHg 49%
    09:00 +18°C° 0 mm 8 m/S 753 mmHg 48%
    10:00 +19°C° 0 mm 9 m/S 753 mmHg 46%
    11:00 +22°C° 0 mm 9 m/S 752 mmHg 45%
    12:00 +21°C° 0,2 mm 9 m/S 752 mmHg 48%
    13:00 +21°C° 0,2 mm 10 m/S 752 mmHg 52%
    14:00 +19°C° 0,2 mm 10 m/S 752 mmHg 55%
    15:00 +18°C° 0,5 mm 9 m/S 752 mmHg 62%
    16:00 +16°C° 0,5 mm 8 m/S 753 mmHg 69%
    17:00 +15°C° 0,5 mm 7 m/S 753 mmHg 76%
    18:00 +14°C° 0 mm 7 m/S 754 mmHg 77%
    19:00 +13°C° 0 mm 6 m/S 754 mmHg 78%
    20:00 +12°C° 0 mm 5 m/S 754 mmHg 79%
    21:00 +11°C° 0 mm 6 m/S 755 mmHg 79%
    22:00 +11°C° 0 mm 6 m/S 755 mmHg 79%
    23:00 +10°C° 0 mm 7 m/S 755 mmHg 79%
    Mehr zeigen